TimeEDT,TemperatureF,Dew PointF,Humidity,Sea Level PressureIn,VisibilityMPH,Wind Direction,Wind SpeedMPH,Gust SpeedMPH,PrecipitationIn,Events,Conditions,WindDirDegrees,DateUTC
12:51 AM,32.9,28.0,82,30.99,10.0,NNW,5.8,-,N/A,,Clear,330,2013-04-15 04:51:00
1:51 AM,32.9,28.0,82,31.00,10.0,Calm,Calm,-,N/A,,Clear,0,2013-04-15 05:51:00
2:51 AM,32.0,28.0,85,31.00,10.0,NW,3.5,-,N/A,,Clear,320,2013-04-15 06:51:00
3:51 AM,31.1,27.1,85,31.02,10.0,Calm,Calm,-,N/A,,Clear,0,2013-04-15 07:51:00
4:51 AM,30.0,27.1,89,31.04,10.0,Calm,Calm,-,N/A,,Clear,0,2013-04-15 08:51:00
5:51 AM,30.0,28.0,92,31.07,10.0,NW,3.5,-,N/A,,Clear,310,2013-04-15 09:51:00
6:51 AM,31.1,28.0,88,31.10,10.0,NW,3.5,-,N/A,,Clear,310,2013-04-15 10:51:00
7:51 AM,34.9,29.1,79,31.13,10.0,Calm,Calm,-,N/A,,Clear,0,2013-04-15 11:51:00
8:51 AM,41.9,30.0,63,31.14,10.0,Calm,Calm,-,N/A,,Clear,0,2013-04-15 12:51:00
9:51 AM,46.9,30.0,52,31.14,10.0,Calm,Calm,-,N/A,,Clear,0,2013-04-15 13:51:00
10:51 AM,48.9,29.1,46,31.15,10.0,Calm,Calm,-,N/A,,Mostly Cloudy,0,2013-04-15 14:51:00
11:51 AM,50.0,28.0,43,31.13,10.0,Calm,Calm,-,N/A,,Scattered Clouds,0,2013-04-15 15:51:00
12:51 PM,52.9,27.1,37,31.11,10.0,Calm,Calm,-,N/A,,Clear,0,2013-04-15 16:51:00
1:51 PM,54.9,28.0,36,31.10,10.0,East,8.1,-,N/A,,Clear,100,2013-04-15 17:51:00
2:51 PM,55.9,28.0,34,31.09,10.0,Calm,Calm,-,N/A,,Clear,0,2013-04-15 18:51:00
3:51 PM,57.9,29.1,33,31.05,10.0,Calm,Calm,-,N/A,,Clear,0,2013-04-15 19:51:00
4:51 PM,59.0,30.0,33,31.05,10.0,SE,13.8,-,N/A,,Clear,130,2013-04-15 20:51:00
5:51 PM,54.0,32.0,43,31.08,10.0,ESE,15.0,-,N/A,,Clear,110,2013-04-15 21:51:00
6:51 PM,50.9,32.0,48,31.09,10.0,SE,10.4,-,N/A,,Clear,140,2013-04-15 22:51:00
7:51 PM,48.9,34.9,58,31.12,10.0,SE,8.1,-,N/A,,Clear,130,2013-04-15 23:51:00
8:51 PM,46.9,34.9,63,31.12,10.0,SE,5.8,-,N/A,,Clear,130,2013-04-16 00:51:00
9:51 PM,45.9,36.0,68,31.13,10.0,Calm,Calm,-,N/A,,Clear,0,2013-04-16 01:51:00
10:51 PM,43.9,36.0,74,31.13,10.0,SE,4.6,-,N/A,,Clear,140,2013-04-16 02:51:00
11:51 PM,43.9,32.9,65,31.14,10.0,Calm,Calm,-,N/A,,Clear,0,2013-04-16 03:51:00